KEPLER-10 (BABY YODA) (47501 NORAD) Tracking and Keplerian Element Data

This shows tracking and keplerian element data for the satellite.

Feedback or suggestion? Click here.




ElementValue
Catalog47501
NameKEPLER-10 (BABY YODA)
Epoch Orbit1199
Epoch Day101.93615553
Epoch Year2021
RAAN164.3928
Inclination97.5038
Eccentricity0.0009979
Argument of Perigee334.9242
Mean Anonmoly25.1503
Mean Motion15.1265154
Decay Rate1.547E-05
L11 47501U 21006CS 21101.93615553 .00001547 00000-0 92126-4 0 9999
L22 47501 97.5038 164.3928 0009979 334.9242 25.1503 15.12651540 11991

Live tracking and technical data element details for KEPLER-10 (BABY YODA) (NORAD 47501). KEPLER-10 (BABY YODA) can be tracked NOW for your location showing map with azimuth and elevation plus other details from your city location.

Track the satellite on the map from your city or location and see movement details for azimuth, elevation, latitude, longitude, range, height, and movement on the map or in text.







IsCatalogInMostPopularTable: catalog: 47501, numindb: 12
Update: records affected: 1



GetName: 47501 KEPLER-10 (BABY YODA)

Hit Count: updated at: Tue, 13 Apr 2021 03:48:31 GMT